カタログに戻る

THORAD DELTA 1 DEB

運用中SSO
NORAD 8137·DEBRIS·🇺🇸 United States

打ち上げ Nov 15, 1974 から Vandenberg Space Force Base

Loading…

次のパス (今後24時間)

TLE

最新Source: Space-Track

元期: Sep 14, 2026, 07:29 UTC

1 08137U 74089F   26257.31205822 -.00000030  00000-0  68028-4 0  9994
2 08137 101.2134 189.4850 0091487 352.5803 161.7506 12.71222092402058

AllMySatでTHORAD DELTA 1 DEBをリアルタイム追跡

Download on the App Store